Home   Weather   Jelgava   Past weeks

Flag for Latvia Past Weather in Jelgava, Latvia — Yesterday and Last 2 Weeks

Now
36 °F

Low clouds.


Feels Like: 29 °F
Forecast: 35 / 37 °F
Wind: 8 mph from Southwest

Location: Riga Airport

Current Time: Jan 22, 2017 at 12:29:56 pm

Latest Report: Jan 22, 2017 at 11:50 am


Visibility: N/A

Pressure: 30.30 "Hg

Humidity: 93%

Dew Point: 34 °F

Location of JelgavaLocation

Past Weather in Jelgava — Graph

°F

Jelgava Temperature Yesterday

Maximum temperature yesterday: 37 °F (at 12:20 am)
Minimum temperature yesterday: 28 °F (at 11:50 pm)
Average temperature yesterday: 35 °F

High & Low Weather Summary for the Past Weeks

 TemperatureHumidityPressure
High39 °F (Jan 20, 12:20 am)100% (Jan 7, 12:20 pm)30.57 "Hg (Jan 7, 12:20 pm)
Low1 °F (Jan 7, 11:20 am)73% (Jan 11, 1:20 pm)29.21 "Hg (Jan 12, 10:50 pm)
Average27 °F96%30.02 "Hg
* Reported Jan 7 11:20 am — Jan 22 11:20 am, Jelgava, Weather by CustomWeather, © 2017

Note: Actual official high and low records may vary slightly from our data, if they occured in-between our weather recording intervals... More about our weather records

Advertising

Jelgava Weather History for the Previous 24 Hours

Scroll right to see more
 ConditionsComfort  
Time TempWeatherWind HumidityBarometerVisibility
11:20 am
Sun, Jan 22
36 °FLow clouds.10 mph93%30.30 "HgN/A
10:50 am34 °FLow clouds.9 mph100%30.30 "HgN/A
10:20 am34 °FLow clouds.9 mph100%30.30 "HgN/A
9:50 am34 °FLow clouds.9 mph100%30.30 "HgN/A
9:20 am34 °FLow clouds.10 mph100%30.30 "HgN/A
8:50 am34 °FLow clouds.12 mph100%30.30 "HgN/A
8:20 am34 °FPassing clouds.6 mph100%30.30 "HgN/A
7:50 am32 °FPassing clouds.9 mph100%30.30 "HgN/A
7:20 am32 °FClear.8 mph100%30.30 "Hg10 mi
6:50 am32 °FPassing clouds.7 mph100%30.30 "HgN/A
6:20 am32 °FPassing clouds.7 mph100%30.30 "HgN/A
5:50 am32 °FPassing clouds.8 mph100%30.30 "HgN/A
5:20 am32 °FPassing clouds.7 mph100%30.33 "HgN/A
4:50 am32 °FPassing clouds.7 mph100%30.33 "HgN/A
4:20 am32 °FPartly cloudy.6 mph100%30.33 "HgN/A
3:50 am32 °FPartly cloudy.7 mph100%30.33 "HgN/A
3:20 am30 °FPassing clouds.7 mph100%30.33 "Hg4 mi
2:50 am30 °FIce fog.7 mph100%30.33 "Hg2 mi
2:20 am30 °FIce fog.8 mph100%30.33 "Hg1 mi
1:50 am28 °FIce fog.6 mph100%30.33 "Hg3 mi
1:20 am27 °FIce fog.5 mph100%30.33 "Hg1 mi
12:50 am27 °FPassing clouds.5 mph100%30.36 "Hg4 mi
12:20 am28 °FClear.3 mph100%30.36 "Hg6 mi
11:50 pm
Sat, Jan 21
28 °FClear.3 mph100%30.36 "Hg5 mi
11:20 pm30 °FPassing clouds.3 mph100%30.36 "HgN/A
10:50 pm32 °FPassing clouds.5 mph100%30.36 "HgN/A
10:20 pm32 °FOvercast.3 mph100%30.36 "HgN/A
9:50 pm34 °FOvercast.5 mph100%30.36 "HgN/A
9:20 pm30 °FOvercast.3 mph100%30.36 "HgN/A
8:50 pm30 °FPassing clouds.5 mph100%30.33 "HgN/A
8:20 pm34 °FPassing clouds.2 mph93%30.36 "HgN/A
7:50 pm34 °FPassing clouds.2 mph100%30.36 "HgN/A
7:20 pm34 °FPassing clouds.3 mph93%30.33 "HgN/A
6:50 pm34 °FPassing clouds.3 mph100%30.33 "HgN/A
6:20 pm36 °FPassing clouds.2 mph93%30.33 "HgN/A
5:50 pm36 °FPassing clouds.5 mph93%30.33 "HgN/A
5:20 pm36 °FPassing clouds.5 mph93%30.33 "HgN/A
4:50 pm36 °FPassing clouds.6 mph87%30.33 "HgN/A
4:20 pm37 °FPartly sunny.7 mph81%30.30 "HgN/A
3:50 pm37 °FPartly sunny.6 mph81%30.30 "HgN/A
3:20 pm37 °FPartly sunny.7 mph81%30.30 "HgN/A
2:50 pm37 °FPartly sunny.9 mph87%30.30 "HgN/A
2:20 pm37 °FPartly sunny.10 mph87%30.30 "HgN/A
1:50 pm37 °FPassing clouds.9 mph87%30.27 "HgN/A
1:20 pm37 °FPassing clouds.9 mph87%30.27 "HgN/A
12:50 pm36 °FScattered clouds.9 mph93%30.27 "HgN/A
12:20 pm36 °FPartly sunny.8 mph93%30.27 "HgN/A
Weather by CustomWeather, © 2017

See weather overviewHow to use our weather pages